This demonstration page uses our WeatherBlox Daily Observations layout. Learn more.

Left ArrowRight Arrow

Hourly Observations for February 7, 2015

Temp ( °F °C ) Dew Point ( °F °C ) Humidity (%) Winds ( mph kmh ) Pressure ( in mb ) Visibility ( mi km ) Precip ( " mm )
12:53 am 00:53 Clear 26 -3.3 18 -7.8 71 71 E 5 7 30.15 1021 10 16.0934 N/A
1:53 am 01:53 Clear 27 -2.8 18 -7.8 69 69 E 5 7 30.13 1020 10 16.0934 N/A
2:53 am 02:53 Clear 26 -3.3 18 -7.8 71 71 ESE 5 7 30.1 1019 10 16.0934 N/A
3:53 am 03:53 Clear 28 -2.2 17 -8.3 63 63 ESE 5 7 30.08 1019 10 16.0934 N/A
4:53 am 04:53 Clear 26 -3.3 17 -8.3 69 69 SE 3 6 30.06 1018 10 16.0934 N/A
5:53 am 05:53 Clear 27 -2.8 20 -6.7 75 75 E 3 6 30.06 1018 10 16.0934 N/A
6:53 am 06:53 Clear 26 -3.3 19 -7.2 75 75 SE 3 6 30.08 1019 10 16.0934 N/A
7:53 am 07:53 Sunny 29 -1.7 18 -7.8 63 63 ESE 5 7 30.08 1019 10 16.0934 N/A
8:53 am 08:53 Sunny 33 0.6 21 -6.1 61 61 ESE 6 9 30.09 1019 10 16.0934 N/A
9:53 am 09:53 Sunny 42 5.6 23 -5 47 47 SSW 7 11 30.06 1018 10 16.0934 N/A
10:53 am 10:53 Sunny 45 7.2 25 -3.9 46 46 SW 12 19 30.04 1017 10 16.0934 N/A
11:53 am 11:53 Sunny 47 8.3 27 -2.8 46 46 VRB 6 9 30.01 1016 10 16.0934 N/A
12:53 pm 12:53 Sunny 50 10 28 -2.2 43 43 SSW 9 15 29.97 1015 10 16.0934 N/A
1:53 pm 13:53 Sunny 52 11.1 30 -1.1 43 43 S 9 15 29.93 1014 10 16.0934 N/A
2:53 pm 14:53 Sunny 55 12.8 31 -0.6 40 40 SSW 10 17 29.9 1013 10 16.0934 N/A
3:53 pm 15:53 Sunny 57 13.9 32 undefined 39 39 SW 7 11 29.89 1012 10 16.0934 N/A
4:53 pm 16:53 Sunny 57 13.9 33 0.6 41 41 SSW 7 11 29.86 1011 10 16.0934 N/A
5:53 pm 17:53 Sunny 54 12.2 33 0.6 45 45 S 5 7 29.86 1011 10 16.0934 N/A
6:53 pm 18:53 Clear 52 11.1 32 undefined 47 47 S 5 7 29.85 1011 10 16.0934 N/A
7:53 pm 19:53 Clear 49 9.4 31 -0.6 50 50 S 5 7 29.86 1011 10 16.0934 N/A
8:53 pm 20:53 Clear 50 10 31 -0.6 48 48 SSW 6 9 29.85 1011 10 16.0934 N/A
9:53 pm 21:53 Clear 50 10 30 -1.1 46 46 VRB 5 7 29.82 1010 10 16.0934 N/A
10:53 pm 22:53 Clear 52 11.1 31 -0.6 45 45 SSW 7 11 29.82 1010 10 16.0934 N/A
11:53 pm 23:53 Clear 52 11.1 31 -0.6 45 45 SW 7 11 29.8 1009 10 16.0934 N/A

Powered by AerisWeather